Dewpoint
30 27 25 25 28 27 28 30 30 32 23 30 34 37 41 49 48 50 51 51 51 51 53 53 53 54 56 58 62 63 64 69 66 65 67 68 69 71 74 73 72 72 74 74
19 16 21 23 21 23 26 28 28 35 22 21 31 33 35 45 47 47 50 51 52 51 52 53 53 54 56 59 63 64 65 70 68 67 69 70 73 73 70 74 74 73 74 74
13 12 10 11 14 18 20 22 26 28 27 21 28 31 36 39 45 46 48 50 51 52 52 53 53 55 56 61 62 65 69 72 73 73 70 70 73 72 74 74 71 74 74 74
8 7 7 5 6 8 9 14 18 23 26 22 23 31 45 43 43 46 46 48 50 52 53 53 53 53 54 58 63 65 69 72 72 75 73 76 70 70 71 71 69 71 74 74
8 7 7 8 8 10 10 10 16 20 25 24 22 24 34 34 32 33 41 46 48 52 53 52 53 53 53 57 60 64 70 73 75 75 76 71 73 71 70 73 74 78 75 75
7 8 6 7 11 14 14 14 14 17 20 19 18 19 22 28 28 28 29 35 47 49 53 53 53 53 53 55 59 62 68 74 75 75 75 76 76 73 73 71 74 69 70 71
10 6 5 9 14 18 15 9 10 13 12 11 12 16 17 20 22 32 33 34 41 49 52 54 53 53 55 55 57 60 69 74 75 74 74 75 75 76 75 73 68 71 67 69
10 8 9 17 18 18 14 9 10 17 11 9 13 17 17 18 30 35 38 40 45 48 51 53 53 53 55 56 58 63 69 74 73 75 76 77 77 71 71 71 68 66 67 69
16 16 17 15 19 19 17 17 12 7 4 4 6 11 12 24 31 39 43 47 47 48 51 53 52 53 55 57 60 64 71 74 75 73 76 76 76 75 72 76 74 68 70 69
23 20 19 20 20 18 18 17 10 10 16 15 9 14 17 32 32 39 47 51 53 51 51 53 54 55 54 56 59 62 69 73 71 70 71 71 72 75 75 74 76 75 73 74
20 19 20 23 21 19 16 10 15 13 9 10 9 22 28 37 42 43 49 54 56 54 53 52 53 55 57 56 57 58 62 65 69 70 70 72 71 71 73 70 74 75 74 77
26 21 18 17 19 18 13 12 12 14 19 16 17 21 36 38 40 49 53 56 57 57 57 56 54 54 56 59 59 60 61 64 66 68 71 69 70 72 71 72 71 73 75 78
28 23 17 17 16 19 19 17 16 13 12 19 15 21 31 37 45 51 52 55 59 49 51 58 57 57 59 60 62 61 64 65 66 67 66 67 68 69 69 71 73 73 77 77
37 17 17 17 22 23 24 19 17 15 14 15 16 22 30 30 36 47 50 55 58 59 54 58 57 59 60 63 64 66 64 65 66 66 67 70 69 70 68 71 74 73 77 78
23 20 22 21 21 20 19 17 17 16 17 18 18 20 24 26 31 46 50 53 57 59 61 61 59 62 64 66 68 68 66 67 68 70 69 70 72 74 76 76 76 76 77 77
23 26 25 23 20 19 16 14 10 9 11 14 15 16 21 22 40 46 51 51 53 56 61 65 65 64 65 65 67 70 70 70 73 70 70 73 75 76 76 77 77 79 77 78
23 23 26 25 24 24 20 16 12 12 11 9 10 14 18 24 31 41 51 54 54 55 55 60 61 61 60 58 61 63 67 68 68 67 67 70 73 75 78 77 78 78 78 77
24 27 26 25 27 24 22 19 15 14 16 14 14 15 17 31 39 41 48 56 55 56 55 55 54 53 55 57 60 68 62 69 67 66 67 67 68 72 77 77 78 78 77 78
23 25 25 23 23 24 21 20 18 26 27 28 20 28 33 37 40 43 52 56 58 58 58 56 54 56 54 58 62 66 68 70 71 72 74 73 73 75 75 77 78 77 76 76
22 23 25 26 25 23 29 28 30 28 24 40 40 37 37 41 37 47 53 52 51 53 55 54 56 60 60 58 61 64 65 66 66 68 70 71 70 69 67 68 71 77 79 77
30 31 26 26 25 25 31 29 28 26 37 40 40 43 44 44 45 54 52 52 54 55 55 58 59 59 60 60 59 61 65 67 67 68 68 70 70 70 69 71 73 74 75 78
33 33 31 29 29 28 34 32 31 40 39 38 38 37 37 40 42 45 48 50 53 55 57 61 62 63 61 61 62 63 64 66 68 68 69 70 70 67 64 71 74 74 74 75
32 32 32 35 34 40 36 35 35 36 39 39 40 39 39 37 38 39 42 45 47 50 54 57 57 60 63 62 63 61 68 67 66 66 67 69 70 69 70 71 71 65 69 67
36 37 36 37 34 35 37 38 40 39 39 40 39 39 39 39 38 39 40 40 42 43 44 46 52 54 57 60 61 62 62 64 62 63 63 64 65 68 70 62 60 60 59 63
34 41 40 39 40 39 40 40 41 42 42 41 41 40 39 40 41 41 42 45 44 46 44 46 48 49 51 55 59 57 61 61 58 57 55 54 48 59 59 62 58 58 64 59
36 38 37 36 40 42 44 43 43 43 41 41 41 42 42 43 43 44 43 44 45 48 48 51 53 53 53 53 58 60 60 61 60 56 50 46 46 45 44 44 51 56 57 57
Lifted_Index
1 0 -0 -1 -1 -0 -0 -1 -1 -0 -0 -0 -1 -1 -2 -3 -3 -3 -3 -3 -3 -2 -1 -1 -0 -0 -1 -1 -1 -1 -2 -2 -3 -3 -3 -4 -4 -4 -4 -4 -4 -5 -5 -5
0 0 -0 -0 -0 -0 -0 -1 -1 -1 -0 -0 -0 -1 -1 -2 -2 -3 -3 -3 -3 -2 -2 -1 -0 -0 -1 -1 -2 -2 -2 -3 -3 -3 -4 -4 -4 -4 -4 -4 -5 -5 -6 -6
0 -0 0 0 0 -0 -1 -1 -1 -1 -0 -0 -1 -1 -1 -1 -2 -2 -2 -3 -3 -3 -2 -1 -1 -1 -1 -1 -2 -2 -3 -4 -4 -4 -4 -4 -4 -4 -4 -4 -5 -5 -6 -6
-0 0 1 1 0 -0 -0 -0 -0 -0 -1 -1 -1 -0 -0 -1 -1 -1 -2 -2 -3 -3 -2 -2 -1 -1 -1 -1 -2 -2 -3 -4 -5 -5 -5 -5 -5 -4 -4 -4 -5 -5 -6 -6
0 1 1 1 1 1 1 1 0 -0 -1 -1 -1 -1 -1 -0 -0 -0 -1 -1 -2 -2 -3 -2 -2 -1 -1 -1 -2 -2 -4 -5 -5 -5 -5 -5 -5 -5 -5 -5 -5 -5 -5 -6
0 1 1 1 1 1 1 1 1 0 -1 -1 -1 -1 -1 -0 0 1 1 0 -1 -2 -3 -2 -2 -1 -1 -1 -2 -2 -4 -5 -6 -6 -6 -6 -6 -5 -5 -5 -5 -5 -5 -5
-0 0 1 1 1 0 0 0 -0 -1 -1 -1 -1 -1 -1 -1 -0 1 1 1 -1 -2 -3 -2 -2 -2 -1 -1 -2 -3 -4 -5 -6 -6 -6 -6 -6 -6 -5 -5 -5 -4 -4 -4
-1 -0 0 1 1 0 -0 -1 -1 -1 -1 -1 -1 -1 -1 -0 -0 0 0 -0 -1 -2 -3 -3 -2 -2 -2 -2 -2 -3 -5 -6 -6 -7 -7 -7 -7 -6 -6 -5 -5 -4 -4 -4
-1 -1 -0 1 1 1 0 -0 -1 -1 -1 -1 -1 -1 -1 -0 0 -0 -1 -2 -2 -3 -3 -3 -3 -2 -2 -2 -3 -4 -5 -6 -7 -7 -7 -7 -7 -7 -6 -6 -6 -5 -5 -5
-1 -1 -0 0 1 1 0 -0 -1 -1 -1 -1 -1 -1 -1 -0 -0 -1 -2 -3 -4 -4 -4 -4 -3 -3 -3 -3 -3 -4 -5 -6 -7 -7 -7 -7 -7 -7 -7 -7 -6 -6 -6 -5
-0 -0 -0 -1 -0 1 1 0 -0 -1 -1 -1 -1 -1 -0 -0 -1 -2 -4 -5 -5 -5 -4 -4 -4 -4 -3 -3 -4 -4 -5 -6 -6 -7 -7 -7 -7 -7 -7 -7 -7 -7 -7 -7
1 1 -0 -1 -0 1 2 1 0 -0 -1 -1 -1 -0 -0 -1 -2 -3 -5 -5 -5 -4 -4 -4 -4 -4 -4 -4 -4 -4 -5 -5 -6 -6 -7 -7 -7 -7 -7 -7 -7 -7 -8 -8
2 2 0 -0 -0 1 2 2 1 0 -1 -1 -1 -0 -0 -1 -2 -4 -5 -5 -5 -4 -3 -3 -4 -5 -5 -5 -5 -5 -5 -6 -6 -6 -6 -7 -7 -7 -7 -7 -7 -8 -8 -9
4 3 1 0 0 1 2 2 1 1 0 -0 -1 -1 -0 -0 -1 -3 -4 -5 -6 -5 -4 -4 -5 -6 -5 -5 -6 -6 -6 -6 -6 -6 -7 -7 -7 -7 -8 -8 -8 -8 -9 -9
4 4 3 2 2 2 3 3 2 2 1 1 0 -0 -0 0 -0 -2 -4 -5 -6 -6 -6 -6 -7 -7 -6 -6 -6 -7 -7 -7 -7 -7 -7 -7 -8 -8 -8 -9 -9 -9 -10 -10
5 4 4 3 3 3 3 3 3 2 2 2 1 1 0 1 1 -1 -3 -4 -5 -6 -7 -8 -8 -7 -7 -6 -6 -6 -6 -6 -6 -6 -6 -7 -8 -9 -9 -10 -10 -10 -10 -10
5 5 4 4 3 3 3 3 3 3 2 2 2 1 1 2 1 -0 -2 -4 -4 -5 -6 -6 -7 -6 -6 -5 -5 -5 -5 -4 -3 -3 -3 -4 -6 -8 -9 -10 -10 -10 -10 -10
5 5 5 4 3 2 2 3 3 3 3 3 2 2 2 2 1 -1 -2 -4 -4 -5 -5 -5 -5 -4 -4 -4 -4 -5 -5 -4 -3 -3 -3 -3 -4 -7 -9 -10 -10 -10 -10 -10
6 5 5 4 3 2 2 3 3 3 3 2 2 2 2 1 -0 -2 -3 -4 -4 -4 -4 -4 -4 -4 -3 -4 -4 -5 -6 -6 -6 -6 -5 -5 -6 -7 -8 -9 -10 -10 -10 -10
6 5 5 4 4 3 3 3 4 3 3 2 1 1 1 0 -1 -2 -3 -3 -3 -4 -4 -4 -4 -4 -4 -4 -4 -5 -6 -6 -6 -6 -6 -6 -7 -7 -7 -7 -7 -9 -10 -11
5 5 4 4 4 3 3 4 4 3 3 2 2 1 1 0 -1 -1 -2 -2 -3 -4 -4 -5 -5 -5 -5 -4 -4 -5 -5 -5 -5 -6 -6 -6 -6 -6 -5 -5 -6 -7 -9 -10
4 4 4 4 3 3 4 4 4 4 3 3 3 3 2 2 1 0 -0 -1 -2 -3 -4 -5 -6 -6 -6 -5 -4 -4 -5 -5 -5 -5 -6 -6 -6 -5 -5 -5 -6 -6 -7 -8
4 4 4 3 3 3 4 4 5 4 4 4 4 4 4 3 3 2 1 1 0 -1 -2 -4 -5 -6 -6 -5 -4 -4 -4 -4 -4 -4 -4 -4 -5 -5 -5 -5 -5 -4 -5 -6
4 4 4 4 4 4 4 5 5 5 5 5 4 4 4 4 3 3 3 2 2 1 0 -1 -2 -3 -4 -4 -4 -3 -3 -2 -2 -1 -1 -2 -2 -3 -4 -3 -3 -3 -3 -3
4 4 4 4 4 4 4 4 4 4 4 5 4 4 4 4 4 3 3 2 2 2 1 1 0 -1 -1 -2 -2 -2 -2 -1 -1 0 1 1 1 0 -0 -1 -1 -1 -2 -2
4 4 4 4 4 4 4 4 4 4 4 5 4 4 4 4 3 3 3 2 2 2 1 1 1 0 -0 -1 -1 -2 -2 -1 -1 0 1 2 2 2 2 2 1 0 -1 -1